Weather History for Oceana NAS, VA

Change the Weather History Date:

Tuesday, February 12, 2013

  Actual Average Record
Temperature  
Mean Temperature 54 °F -  
Max Temperature 61 °F 49 °F 69 °F (1999)
Min Temperature 48 °F 33 °F 24 °F (2012)
Degree Days  
Heating Degree Days 10    
Growing Degree Days 4 (Base 50)    
Moisture  
Dew Point 34 °F    
Average Humidity 49    
Maximum Humidity 72    
Minimum Humidity 25    
Precipitation  
Precipitation 0.00 in - - ()
Sea Level Pressure  
Sea Level Pressure 29.96 in    
Wind  
Wind Speed 11 mph (WSW)    
Max Wind Speed 18 mph    
Max Gust Speed 28 mph    
Visibility 10 miles    
Events      
Averages and records for this station are not official NWS values.
T = Trace of Precipitation, MM = Missing Value Source: NWS Daily Summary

Daily Weather History Graph

Daily Weather History Graph

Search for Another Location

Airport:

Trip Planner

Search our weather history database for the weather conditions in past years. The results will help you decide how hot, cold, wet, or windy it might be!

Date:

Astronomy

Feb. 12, 2013 Rise Set
Actual Time 6:55 AM EST 5:41 PM EST
Civil Twilight 6:28 AM EST 6:08 PM EST
Nautical Twilight 5:58 AM EST 6:38 PM EST
Astronomical Twilight 5:28 AM EST 7:08 PM EST
Moon 7:56 AM EST (2/12) 8:33 PM EST (2/12)
Length of Visible Light 11h 39m
Length of Day
10h 46m
Waxing Crescent, 7% of the Moon is Illuminated
Feb 12
Waxing Crescent
Feb 17
First Quarter
Feb 25
Full
Mar 4
Last Quarter
Mar 11
New

Hourly Weather History & Observations

Time (EST) Temp. Dew Point Humidity Pressure Visibility Wind Dir Wind Speed Gust Speed Precip Events Conditions
12:56 AM 61.0 °F 52.0 °F 72% 29.84 in 10.0 mi West 18.4 mph 27.6 mph N/A   Overcast
1:56 AM 60.1 °F 46.9 °F 62% 29.85 in 10.0 mi West 16.1 mph 25.3 mph N/A   Mostly Cloudy
2:56 AM 57.9 °F 44.1 °F 60% 29.87 in 10.0 mi West 13.8 mph 23.0 mph N/A   Mostly Cloudy
3:56 AM 57.0 °F 39.0 °F 51% 29.89 in 10.0 mi West 12.7 mph 21.9 mph N/A   Mostly Cloudy
4:56 AM 55.0 °F 37.9 °F 53% 29.92 in 10.0 mi West 10.4 mph 19.6 mph N/A   Scattered Clouds
5:56 AM 53.1 °F 37.0 °F 55% 29.94 in 10.0 mi West 10.4 mph 18.4 mph N/A   Scattered Clouds
6:56 AM 51.1 °F 35.1 °F 54% 29.96 in 10.0 mi West 8.1 mph - N/A   Scattered Clouds
7:56 AM 53.1 °F 34.0 °F 48% 29.98 in 10.0 mi WNW 12.7 mph - N/A   Mostly Cloudy
8:56 AM 54.0 °F 32.0 °F 43% 30.01 in 10.0 mi WNW 9.2 mph - N/A   Scattered Clouds
9:56 AM 55.0 °F 28.9 °F 37% 30.02 in 10.0 mi WNW 6.9 mph - N/A   Scattered Clouds
10:56 AM 57.9 °F 28.9 °F 33% 30.02 in 10.0 mi NW 9.2 mph - N/A   Scattered Clouds
11:56 AM 57.9 °F 25.0 °F 28% 30.02 in 10.0 mi West 12.7 mph - N/A   Scattered Clouds
12:56 PM 59.0 °F 23.0 °F 25% 30.01 in 10.0 mi NW 9.2 mph - N/A   Scattered Clouds
1:56 PM 60.1 °F 24.1 °F 25% 29.96 in 10.0 mi Calm Calm - N/A   Scattered Clouds
2:56 PM 57.0 °F 32.0 °F 39% 29.93 in 10.0 mi SE 13.8 mph - N/A   Mostly Cloudy
3:56 PM 54.0 °F 32.0 °F 43% 29.96 in 10.0 mi ESE 8.1 mph - N/A   Mostly Cloudy
4:56 PM 52.0 °F 32.0 °F 47% 29.96 in 10.0 mi SE 3.5 mph - N/A   Mostly Cloudy
5:56 PM 48.9 °F 32.0 °F 52% 29.99 in 10.0 mi Calm Calm - N/A   Overcast
6:56 PM 48.0 °F 32.0 °F 54% 29.99 in 10.0 mi South 4.6 mph - N/A   Overcast
7:56 PM 48.9 °F 32.0 °F 52% 29.99 in 10.0 mi SE 4.6 mph - N/A   Overcast
8:56 PM 50.0 °F 30.9 °F 48% 29.95 in 10.0 mi SSE 9.2 mph - N/A   Overcast
9:56 PM 48.9 °F 35.1 °F 59% 29.95 in 10.0 mi Calm Calm - N/A   Overcast
10:56 PM 48.9 °F 37.9 °F 66% 29.99 in 10.0 mi Calm Calm - N/A   Overcast
11:56 PM 48.9 °F 39.9 °F 71% 29.98 in 10.0 mi South 5.8 mph - N/A   Overcast